South Hill, VA

10:06 PM EST on December 08, 2019 (GMT -0500)
Mecklenburg-Brunswick Regional

Weather History for KAVC - September, 2019

Change the Weather History Date:

Thursday, September 19, 2019

  Actual Average (KEMV) Record (KEMV)
Temperature  
Mean Temperature 62 °F -  
Max Temperature 72 °F 81 °F 91 °F (1982)
Min Temperature 51 °F 57 °F 40 °F (1990)
Degree Days  
Heating Degree Days 4    
Growing Degree Days 12 (Base 50)    
Moisture  
Dew Point 52 °F    
Average Humidity 78    
Maximum Humidity 100    
Minimum Humidity 43    
Precipitation  
Precipitation 0.00 in - - ()
Sea Level Pressure  
Sea Level Pressure 30.34 in    
Wind  
Wind Speed 2 mph (NNE)    
Max Wind Speed 8 mph    
Max Gust Speed -    
Averages and records for this station are not official NWS values.
T = Trace of Precipitation, MM = Missing Value Source: NWS Daily Summary

Daily Weather History Graph

Daily Weather History Graph

Search for Another Location

Airport or City:

Astronomy

Sep. 19, 2019 Rise Set
Actual Time 6:57 AM EDT 7:13 PM EDT
Civil Twilight 6:31 AM EDT 7:39 PM EDT
Nautical Twilight 6:01 AM EDT 8:10 PM EDT
Astronomical Twilight 5:30 AM EDT 8:40 PM EDT
Moon 10:29 PM EDT (9/19) 11:51 AM EDT (9/19)
Length of Visible Light 13h 08m
Length of Day
12h 16m
Waning Gibbous, 74% of the Moon is Illuminated
Sep 19
Waning Gibbous
Sep 21
Last Quarter
Sep 28
New
Oct 5
First Quarter
Oct 13
Full

Hourly Weather History & Observations

Time (EDT) Temp. Dew Point Humidity Pressure Visibility Wind Dir Wind Speed Gust Speed Precip Events Conditions
12:15 AM 56.3 °F 56.3 °F 100% 30.28 in - Calm Calm - N/A   Unknown
12:35 AM 57.0 °F 56.7 °F 99% 30.28 in - Calm Calm - N/A   Unknown
12:55 AM 55.9 °F 55.9 °F 100% 30.28 in - Calm Calm - N/A   Unknown
1:15 AM 55.4 °F 55.4 °F 100% 30.29 in - Calm Calm - N/A   Unknown
1:35 AM 54.3 °F 54.3 °F 100% 30.30 in - Calm Calm - N/A   Unknown
1:55 AM 54.7 °F 54.7 °F 100% 30.29 in - Calm Calm - N/A   Unknown
2:15 AM 54.0 °F 54.0 °F 100% 30.29 in - Calm Calm - N/A   Unknown
2:35 AM 53.2 °F 53.2 °F 100% 30.30 in - Calm Calm - N/A   Unknown
2:55 AM 53.6 °F 53.6 °F 100% 30.30 in - Calm Calm - N/A   Unknown
3:15 AM 52.9 °F 52.9 °F 100% 30.29 in - Calm Calm - N/A   Unknown
3:35 AM 52.0 °F 52.0 °F 100% 30.30 in - NNW 3.5 mph - N/A   Unknown
3:55 AM 52.7 °F 52.7 °F 100% 30.30 in - Calm Calm - N/A   Unknown
4:15 AM 53.1 °F 53.1 °F 100% 30.31 in - Calm Calm - N/A   Unknown
4:35 AM 52.0 °F 52.0 °F 100% 30.31 in - North 4.6 mph - N/A   Unknown
4:55 AM 52.7 °F 52.7 °F 100% 30.32 in - North 4.6 mph - N/A   Unknown
5:15 AM 52.3 °F 52.3 °F 100% 30.32 in - North 4.6 mph - N/A   Unknown
5:35 AM 51.8 °F 51.8 °F 100% 30.32 in - NNW 3.5 mph - N/A   Unknown
5:55 AM 52.0 °F 52.0 °F 100% 30.33 in - North 6.9 mph - N/A   Unknown
6:15 AM 51.8 °F 51.8 °F 100% 30.34 in - North 6.9 mph - N/A   Unknown
6:35 AM 51.4 °F 51.4 °F 100% 30.34 in - North 5.8 mph - N/A   Unknown
6:55 AM 51.8 °F 51.8 °F 100% 30.34 in - North 5.8 mph - N/A   Unknown
7:15 AM 51.6 °F 51.6 °F 100% 30.35 in - North 6.9 mph - N/A   Unknown
7:35 AM 52.3 °F 52.3 °F 100% 30.35 in - North 4.6 mph - N/A   Unknown
7:55 AM 53.6 °F 53.6 °F 100% 30.36 in - North 5.8 mph - N/A   Unknown
8:15 AM 55.4 °F 55.0 °F 99% 30.36 in - North 4.6 mph - N/A   Unknown
8:35 AM 57.2 °F 55.2 °F 93% 30.36 in - North 5.8 mph - N/A   Unknown
8:55 AM 58.3 °F 55.6 °F 91% 30.36 in - NNE 4.6 mph - N/A   Unknown
9:15 AM 60.1 °F 56.5 °F 88% 30.36 in - North 8.1 mph - N/A   Unknown
9:55 AM 63.0 °F 54.5 °F 74% 30.37 in - NNE 4.6 mph - N/A   Clear
10:15 AM 64.0 °F 53.1 °F 67% 30.37 in - NNE 5.8 mph - N/A   Clear
10:35 AM 65.1 °F 52.3 °F 63% 30.37 in - NNE 5.8 mph - N/A   Clear
10:55 AM 66.6 °F 51.8 °F 59% 30.37 in - North 5.8 mph - N/A   Scattered Clouds
11:15 AM 67.5 °F 50.9 °F 55% 30.37 in - NNE 4.6 mph - N/A   Clear
11:35 AM 67.6 °F 51.4 °F 56% 30.38 in - North 8.1 mph - N/A   Scattered Clouds
11:55 AM 68.4 °F 49.8 °F 51% 30.38 in - ESE 5.8 mph - N/A   Scattered Clouds
12:15 PM 67.5 °F 50.4 °F 54% 30.38 in - North 4.6 mph - N/A   Mostly Cloudy
12:35 PM 68.9 °F 50.5 °F 52% 30.37 in - Calm Calm - N/A   Overcast
12:55 PM 68.5 °F 50.2 °F 52% 30.37 in - East 3.5 mph - N/A   Scattered Clouds
1:15 PM 69.3 °F 49.8 °F 50% 30.37 in - NNE 5.8 mph - N/A   Mostly Cloudy
1:35 PM 70.3 °F 48.7 °F 46% 30.36 in - ENE 5.8 mph - N/A   Mostly Cloudy
1:55 PM 69.8 °F 47.8 °F 46% 30.36 in - Calm Calm - N/A   Scattered Clouds
2:15 PM 70.9 °F 49.5 °F 47% 30.35 in - NNE 8.1 mph - N/A   Mostly Cloudy
2:35 PM 70.9 °F 49.8 °F 47% 30.35 in - ESE 3.5 mph - N/A   Mostly Cloudy
2:55 PM 71.2 °F 48.4 °F 44% 30.34 in - NNE 3.5 mph - N/A   Scattered Clouds
3:15 PM 72.0 °F 48.4 °F 43% 30.34 in - North 4.6 mph - N/A   Mostly Cloudy
3:35 PM 70.7 °F 50.2 °F 48% 30.34 in - SE 4.6 mph - N/A   Scattered Clouds
3:55 PM 70.9 °F 48.9 °F 46% 30.33 in - NNE 4.6 mph - N/A   Scattered Clouds
4:15 PM 71.6 °F 49.3 °F 45% 30.32 in - Calm Calm - N/A   Clear
4:35 PM 71.1 °F 49.3 °F 46% 30.32 in - Calm Calm - N/A   Scattered Clouds
4:55 PM 71.1 °F 49.1 °F 46% 30.32 in - Calm Calm - N/A   Scattered Clouds
5:15 PM 71.2 °F 49.3 °F 46% 30.33 in - ESE 4.6 mph - N/A   Clear
5:55 PM 70.3 °F 49.6 °F 48% 30.33 in - ENE 3.5 mph - N/A   Clear
6:15 PM 69.8 °F 50.0 °F 49% 30.33 in - Calm Calm - N/A   Clear
6:35 PM 68.5 °F 51.1 °F 54% 30.33 in - Calm Calm - N/A   Clear
6:55 PM 67.1 °F 51.1 °F 56% 30.32 in - Calm Calm - N/A   Clear
7:15 PM 65.5 °F 51.3 °F 60% 30.33 in - Calm Calm - N/A   Clear
7:35 PM 62.8 °F 52.0 °F 68% 30.33 in - Calm Calm - N/A   Clear
7:55 PM 60.3 °F 52.7 °F 76% 30.34 in - Calm Calm - N/A   Clear
8:15 PM 59.0 °F 52.9 °F 80% 30.34 in - Calm Calm - N/A   Clear
8:35 PM 58.8 °F 52.7 °F 80% 30.34 in - Calm Calm - N/A   Clear
8:55 PM 55.6 °F 53.6 °F 93% 30.36 in - Calm Calm - N/A   Unknown
9:15 PM 56.5 °F 52.9 °F 88% 30.37 in - Calm Calm - N/A   Unknown
9:35 PM 55.4 °F 52.9 °F 91% 30.37 in - Calm Calm - N/A   Unknown
9:55 PM 52.5 °F 52.0 °F 98% 30.36 in - Calm Calm - N/A   Unknown
10:15 PM 53.6 °F 52.2 °F 95% 30.36 in - Calm Calm - N/A   Unknown
10:35 PM 53.8 °F 51.6 °F 92% 30.35 in - Calm Calm - N/A   Unknown
10:55 PM 54.7 °F 52.7 °F 93% 30.35 in - Calm Calm - N/A   Unknown
11:15 PM 54.9 °F 52.3 °F 91% 30.35 in - Calm Calm - N/A   Unknown
11:35 PM 54.5 °F 52.2 °F 92% 30.35 in - Calm Calm - N/A   Unknown